Regional Weather Roundup
Issued by NWS

Home | Current Version | Previous Version | Graphics & Text | Print | Product List | Glossary On
Versions: 1 2 3 4 5 6 7 8 9 10 11 12 13 14 15 16 17 18 19 20 21 22 23 24 25 26 27 28 29 30 31 32 33 34 35 36 37 38 39 40 41 42 43 44 45 46 47 48 49 50
000
ASUS43 KBIS 260131
RWRND
NORTH DAKOTA REGIONAL WEATHER ROUNDUP
NATIONAL WEATHER SERVICE EASTERN NORTH DAKOTA/GRAND FORKS ND
700 PM CST SUN FEB 25 2018

  NOTE: "FAIR" INDICATES FEW OR NO CLOUDS BELOW 12,000 FEET WITH NO
  SIGNIFICANT WEATHER AND/OR OBSTRUCTIONS TO VISIBILITY.

NDZ001>003-009>011-017-260200-
...NORTHWEST NORTH DAKOTA...

CITY           SKY/WX    TMP DP  RH WIND       PRES   REMARKS
WILLISTON      FAIR      26  17  68 S6        29.60F WCI  19
MINOT          FAIR      25  16  68 SW10      29.61S WCI  15
MINOT AFB      FAIR      21  13  69 SW7         N/A  WCI  13
$$

NDZ018>021-031>035-040>046-260200-
...SOUTHWEST NORTH DAKOTA...

CITY           SKY/WX    TMP DP  RH WIND       PRES   REMARKS
BISMARCK       FAIR      27  17  66 SW6       29.72R WCI  20
DICKINSON      FAIR      25  15  66 SW18      29.64S WCI  11
GARRISON         N/A     22  15  75 SW12      29.64S WCI  10
HETTINGER      FAIR      25  15  66 SW16      29.73S WCI  12
$$

NDZ004>008-012>016-024-026-027-054-260200-
...NORTHEAST NORTH DAKOTA...

CITY           SKY/WX    TMP DP  RH WIND       PRES   REMARKS
GRAND FORKS    FAIR      21  16  81 SW8       29.73R WCI  11
GRAND FORKS AF FAIR      19  13  80 SW8       29.72R WCI   9
DEVILS LAKE    FAIR      21  16  81 SW7       29.68S WCI  12
$$

NDZ022-023-025-028>030-036>039-047>053-260200-
...SOUTHEAST NORTH DAKOTA...

CITY           SKY/WX    TMP DP  RH WIND       PRES   REMARKS
JAMESTOWN      FAIR      21  15  78 S12       29.73R WCI   9
FARGO          FAIR      24  18  77 SW12      29.79R WCI  13
WAHPETON       FAIR      19  14  79 SW8       29.83S WCI   9
$$




USA.gov is the U.S. government's official web portal to all federal, state and local government web resources and services.